,,,PA_Meas_PMT16A,,PR_Meas_QMR101_102,,RH_Meas_QMH101,,SR_Meas_QMS101,,TA_Meas_QMH101,,GenWind,,GenWind,
date,time,status,PA,status,PR,status,RH,status,SR,status,TA,status,DirAvg,status,SpdAvg,
2011-02-07, 00:00:04,VALID,1003.27,VALID,0,INVALID,163.67,VALID,0,VALID,24.422,VALID,11,VALID,0.117969,
2011-02-07, 00:01:04,VALID,1003.25,VALID,0,INVALID,163.678,VALID,0,VALID,24.4414,VALID,11,VALID,0.174609,
2011-02-07, 00:02:04,VALID,1003.22,VALID,0,INVALID,163.693,VALID,0,VALID,24.4609,VALID,11,VALID,0.276953,
2011-02-07, 00:03:04,VALID,1003.22,VALID,0,INVALID,163.678,VALID,0,VALID,24.4609,VALID,11,VALID,0.371094,
2011-02-07, 00:04:04,VALID,1003.21,VALID,0,INVALID,163.662,VALID,0,VALID,24.4609,VALID,11,VALID,0.511328,
2011-02-07, 00:05:04,VALID,1003.2,VALID,0,INVALID,163.685,VALID,0.100563,VALID,24.4006,VALID,11,VALID,0.520703,
2011-02-07, 00:06:04,VALID,1003.18,VALID,0,INVALID,163.678,VALID,0.100563,VALID,24.4025,VALID,11,VALID,0.454297,
2011-02-07, 00:07:04,VALID,1003.17,VALID,0,INVALID,163.678,VALID,0.100563,VALID,24.4025,VALID,11,VALID,0.50625,
2011-02-07, 00:08:04,VALID,1003.16,VALID,0,INVALID,163.693,VALID,0,VALID,24.383,VALID,11,VALID,0.287891,
2011-02-07, 00:09:04,VALID,1003.14,VALID,0,INVALID,163.647,VALID,0.100563,VALID,24.3617,VALID,11,VALID,0.342578,
2011-02-07, 00:10:04,VALID,1003.14,VALID,0,INVALID,163.678,VALID,0,VALID,24.3441,VALID,11,VALID,0.46875,
2011-02-07, 00:11:04,VALID,1003.15,VALID,0,INVALID,163.701,VALID,0,VALID,24.3459,VALID,11,VALID,0.363281,
2011-02-07, 00:12:04,VALID,1003.14,VALID,0,INVALID,163.701,VALID,0,VALID,24.3246,VALID,11,VALID,0.386328,
2011-02-07, 00:13:04,VALID,1003.14,VALID,0,INVALID,163.693,VALID,0.100563,VALID,24.3033,VALID,11,VALID,0.557813,
2011-02-07, 00:14:04,VALID,1003.12,VALID,0,INVALID,163.678,VALID,0,VALID,24.3246,VALID,11,VALID,0.405078,
2011-02-07, 00:15:04,VALID,1003.07,VALID,0,INVALID,163.662,VALID,0,VALID,24.3246,VALID,11,VALID,0.575391,
2011-02-07, 00:16:04,VALID,1003.09,VALID,0,INVALID,163.655,VALID,0.100563,VALID,24.3246,VALID,10,VALID,0.556641,
2011-02-07, 00:17:04,VALID,1003.08,VALID,0,INVALID,163.678,VALID,0,VALID,24.3246,VALID,10,VALID,0.500391,
2011-02-07, 00:18:04,VALID,1003.03,VALID,0,INVALID,163.693,VALID,0,VALID,24.3246,VALID,10,VALID,0.357812,
2011-02-07, 00:19:04,VALID,1003.01,VALID,0,INVALID,163.693,VALID,0,VALID,24.3228,VALID,7,VALID,0.469922,
2011-02-07, 00:20:04,VALID,1003,VALID,0,INVALID,163.693,VALID,0,VALID,24.3422,VALID,5,VALID,0.513281,
2011-02-07, 00:21:04,VALID,1003.01,VALID,0,INVALID,163.685,VALID,0.100563,VALID,24.3636,VALID,5,VALID,0.329297,
2011-02-07, 00:22:04,VALID,1003.03,VALID,0,INVALID,163.678,VALID,0,VALID,24.3636,VALID,5,VALID,0.124219,
2011-02-07, 00:23:04,VALID,1003.01,VALID,0,INVALID,163.693,VALID,0,VALID,24.3422,VALID,5,VALID,0.0210938,
2011-02-07, 00:24:04,VALID,1003.02,VALID,0,INVALID,163.655,VALID,0,VALID,24.383,VALID,5,VALID,0,
2011-02-07, 00:25:04,VALID,1002.99,VALID,0,INVALID,163.693,VALID,0,VALID,24.3812,VALID,5,VALID,0,
2011-02-07, 00:26:04,VALID,1003.02,VALID,0,INVALID,163.67,VALID,0,VALID,24.4238,VALID,5,VALID,0.0960938,
2011-02-07, 00:27:04,VALID,1002.97,VALID,0,INVALID,163.685,VALID,0,VALID,24.4025,VALID,5,VALID,0.339844,
2011-02-07, 00:28:04,VALID,1003,VALID,0,INVALID,163.723,VALID,0,VALID,24.383,VALID,5,VALID,0.454297,
2011-02-07, 00:29:04,VALID,1003,VALID,0,INVALID,163.678,VALID,0,VALID,24.383,VALID,5,VALID,0.608594,
2011-02-07, 00:30:04,VALID,1002.97,VALID,0,INVALID,163.678,VALID,0.100563,VALID,24.383,VALID,5,VALID,0.575,
2011-02-07, 00:31:04,VALID,1002.99,VALID,0,INVALID,163.685,VALID,0.100563,VALID,24.383,VALID,5,VALID,0.592578,
2011-02-07, 00:32:04,VALID,1002.97,VALID,0,INVALID,163.693,VALID,0,VALID,24.3636,VALID,5,VALID,0.428906,
2011-02-07, 00:33:04,VALID,1002.96,VALID,0,INVALID,163.67,VALID,0.100563,VALID,24.3636,VALID,5,VALID,0.582812,
2011-02-07, 00:34:04,VALID,1002.95,VALID,0,INVALID,163.655,VALID,0,VALID,24.3636,VALID,5,VALID,0.495703,
2011-02-07, 00:35:04,VALID,1002.95,VALID,0,INVALID,163.678,VALID,0,VALID,24.3636,VALID,5,VALID,0.523047,
2011-02-07, 00:36:04,VALID,1002.95,VALID,0,INVALID,163.678,VALID,0,VALID,24.3422,VALID,5,VALID,0.334766,
2011-02-07, 00:37:04,VALID,1002.92,VALID,0,INVALID,163.678,VALID,0,VALID,24.3246,VALID,5,VALID,0.3875,
2011-02-07, 00:38:04,VALID,1002.91,VALID,0,INVALID,163.685,VALID,0,VALID,24.3228,VALID,5,VALID,0.326562,
2011-02-07, 00:39:04,VALID,1002.91,VALID,0,INVALID,163.701,VALID,0,VALID,24.3246,VALID,5,VALID,0.212109,
2011-02-07, 00:40:04,VALID,1002.86,VALID,0,INVALID,163.685,VALID,0,VALID,24.3052,VALID,5,VALID,0.245312,
2011-02-07, 00:41:04,VALID,1002.81,VALID,0,INVALID,163.693,VALID,0,VALID,24.3052,VALID,5,VALID,0.146484,
2011-02-07, 00:42:04,VALID,1002.8,VALID,0,INVALID,163.693,VALID,0,VALID,24.3478,VALID,5,VALID,0,
2011-02-07, 00:43:04,VALID,1002.78,VALID,0,INVALID,163.67,VALID,0,VALID,24.3265,VALID,5,VALID,0,
2011-02-07, 00:44:04,VALID,1002.75,VALID,0,INVALID,163.685,VALID,0,VALID,24.3052,VALID,5,VALID,0,
2011-02-07, 00:45:04,VALID,1002.7,VALID,0,INVALID,163.701,VALID,0,VALID,24.3052,VALID,5,VALID,0,
2011-02-07, 00:46:04,VALID,1002.71,VALID,0,INVALID,163.693,VALID,0,VALID,24.3459,VALID,5,VALID,0,
2011-02-07, 00:47:04,VALID,1002.67,VALID,0,INVALID,163.701,VALID,0,VALID,24.3654,VALID,5,VALID,0.278125,
2011-02-07, 00:48:04,VALID,1002.66,VALID,0,INVALID,163.685,VALID,0,VALID,24.3654,VALID,5,VALID,0.453906,
2011-02-07, 00:49:04,VALID,1002.61,VALID,0,INVALID,163.67,VALID,0,VALID,24.3636,VALID,5,VALID,0.412109,
2011-02-07, 00:50:04,VALID,1002.58,VALID,0,INVALID,163.708,VALID,0,VALID,24.3636,VALID,5,VALID,0.391016,
2011-02-07, 00:51:04,VALID,1002.59,VALID,0,INVALID,163.647,VALID,0,VALID,24.3636,VALID,5,VALID,0.373437,
2011-02-07, 00:52:04,VALID,1002.55,VALID,0,INVALID,163.678,VALID,0,VALID,24.3849,VALID,5,VALID,0.573828,
2011-02-07, 00:53:04,VALID,1002.54,VALID,0,INVALID,163.685,VALID,0,VALID,24.3654,VALID,5,VALID,0.55,
2011-02-07, 00:54:04,VALID,1002.53,VALID,0,INVALID,163.685,VALID,0,VALID,24.3654,VALID,5,VALID,0.457812,
2011-02-07, 00:55:04,VALID,1002.53,VALID,0,INVALID,163.685,VALID,0,VALID,24.3654,VALID,5,VALID,0.544141,
2011-02-07, 00:56:04,VALID,1002.49,VALID,0,INVALID,163.662,VALID,0.100563,VALID,24.3441,VALID,5,VALID,0.515234,
2011-02-07, 00:57:04,VALID,1002.47,VALID,0,INVALID,163.67,VALID,0,VALID,24.3228,VALID,5,VALID,0.422656,
2011-02-07, 00:58:04,VALID,1002.46,VALID,0,INVALID,163.701,VALID,0.100563,VALID,24.3422,VALID,5,VALID,0.451953,
2011-02-07, 00:59:04,VALID,1002.44,VALID,0,INVALID,163.693,VALID,0.100563,VALID,24.3441,VALID,5,VALID,0.592188,
2011-02-07, 01:00:04,VALID,1002.39,VALID,0,INVALID,163.685,VALID,0,VALID,24.3033,VALID,5,VALID,0.539453,
2011-02-07, 01:01:04,VALID,1002.36,VALID,0,INVALID,163.685,VALID,0,VALID,24.3052,VALID,4,VALID,0.683984,
2011-02-07, 01:02:04,VALID,1002.34,VALID,0,INVALID,163.685,VALID,0,VALID,24.307,VALID,2,VALID,0.702344,
2011-02-07, 01:03:04,VALID,1002.3,VALID,0,INVALID,163.685,VALID,0,VALID,24.2875,VALID,2,VALID,0.670313,
2011-02-07, 01:04:04,VALID,1002.28,VALID,0,INVALID,163.701,VALID,0,VALID,24.2662,VALID,357,VALID,0.624219,
2011-02-07, 01:05:04,VALID,1002.24,VALID,0,INVALID,163.693,VALID,0,VALID,24.2857,VALID,346,VALID,0.680078,
2011-02-07, 01:06:04,VALID,1002.27,VALID,0,INVALID,163.731,VALID,0,VALID,24.307,VALID,346,VALID,0.5875,
2011-02-07, 01:07:04,VALID,1002.25,VALID,0,INVALID,163.662,VALID,0,VALID,24.3052,VALID,346,VALID,0.491406,
2011-02-07, 01:08:04,VALID,1002.28,VALID,0,INVALID,163.693,VALID,0,VALID,24.3246,VALID,344,VALID,0.548047,
2011-02-07, 01:09:04,VALID,1002.23,VALID,0,INVALID,163.685,VALID,0.100563,VALID,24.3246,VALID,344,VALID,0.491406,
2011-02-07, 01:10:04,VALID,1002.26,VALID,0,INVALID,163.67,VALID,0,VALID,24.3459,VALID,344,VALID,0.545313,
2011-02-07, 01:11:04,VALID,1002.24,VALID,0,INVALID,163.685,VALID,0,VALID,24.3441,VALID,350,VALID,0.592969,
2011-02-07, 01:12:04,VALID,1002.24,VALID,0,INVALID,163.67,VALID,0,VALID,24.3441,VALID,352,VALID,0.450781,
2011-02-07, 01:13:04,VALID,1002.22,VALID,0,INVALID,163.693,VALID,0,VALID,24.3033,VALID,352,VALID,0.517187,
2011-02-07, 01:14:04,VALID,1002.25,VALID,0,INVALID,163.678,VALID,0,VALID,24.3441,VALID,352,VALID,0.346094,
2011-02-07, 01:15:04,VALID,1002.27,VALID,0,INVALID,163.685,VALID,0,VALID,24.3459,VALID,352,VALID,0.476172,
2011-02-07, 01:16:04,VALID,1002.22,VALID,0,INVALID,163.678,VALID,0,VALID,24.3246,VALID,352,VALID,0.354297,
2011-02-07, 01:17:04,VALID,1002.25,VALID,0,INVALID,163.693,VALID,0,VALID,24.3246,VALID,352,VALID,0.407031,
2011-02-07, 01:18:04,VALID,1002.27,VALID,0,INVALID,163.701,VALID,0,VALID,24.3459,VALID,352,VALID,0.392969,
2011-02-07, 01:19:04,VALID,1002.25,VALID,0,INVALID,163.662,VALID,0,VALID,24.3246,VALID,352,VALID,0.218359,
2011-02-07, 01:20:04,VALID,1002.25,VALID,0,INVALID,163.693,VALID,0,VALID,24.3246,VALID,352,VALID,0.382422,
2011-02-07, 01:21:04,VALID,1002.21,VALID,0,INVALID,163.701,VALID,0,VALID,24.3246,VALID,352,VALID,0.308203,
2011-02-07, 01:22:04,VALID,1002.24,VALID,0,INVALID,163.678,VALID,0,VALID,24.3052,VALID,352,VALID,0.181641,
2011-02-07, 01:23:04,VALID,1002.19,VALID,0,INVALID,163.716,VALID,0,VALID,24.2857,VALID,352,VALID,0.292578,
2011-02-07, 01:24:04,VALID,1002.16,VALID,0,INVALID,163.693,VALID,0,VALID,24.2857,VALID,352,VALID,0.565234,
2011-02-07, 01:25:04,VALID,1002.18,VALID,0,INVALID,163.685,VALID,0.100563,VALID,24.2449,VALID,352,VALID,0.266016,
2011-02-07, 01:26:04,VALID,1002.14,VALID,0,INVALID,163.693,VALID,0,VALID,24.2857,VALID,352,VALID,0.210938,
2011-02-07, 01:27:04,VALID,1002.14,VALID,0,INVALID,163.693,VALID,0,VALID,24.2662,VALID,352,VALID,0.36875,
2011-02-07, 01:28:04,VALID,1002.15,VALID,0,INVALID,163.678,VALID,0,VALID,24.2857,VALID,352,VALID,0.346094,
2011-02-07, 01:29:04,VALID,1002.13,VALID,0,INVALID,163.693,VALID,0,VALID,24.2662,VALID,352,VALID,0.444141,
2011-02-07, 01:30:04,VALID,1002.12,VALID,0,INVALID,163.693,VALID,0,VALID,24.2662,VALID,352,VALID,0.339063,
2011-02-07, 01:31:04,VALID,1002.14,VALID,0,INVALID,163.67,VALID,0,VALID,24.2662,VALID,352,VALID,0.249609,
2011-02-07, 01:32:04,VALID,1002.11,VALID,0,INVALID,163.678,VALID,0,VALID,24.2255,VALID,352,VALID,0.295312,
2011-02-07, 01:33:04,VALID,1002.12,VALID,0,INVALID,163.678,VALID,0.100563,VALID,24.2468,VALID,352,VALID,0.191797,
2011-02-07, 01:34:04,VALID,1002.12,VALID,0,INVALID,163.678,VALID,0,VALID,24.2662,VALID,352,VALID,0.374609,
2011-02-07, 01:35:04,VALID,1002.14,VALID,0,INVALID,163.662,VALID,0.100563,VALID,24.2644,VALID,352,VALID,0,
2011-02-07, 01:36:04,VALID,1002.16,VALID,0,INVALID,163.67,VALID,0.100563,VALID,24.2662,VALID,352,VALID,0,
2011-02-07, 01:37:04,VALID,1002.18,VALID,0,INVALID,163.716,VALID,0,VALID,24.2662,VALID,352,VALID,0,
2011-02-07, 01:38:04,VALID,1002.13,VALID,0,INVALID,163.701,VALID,0.100563,VALID,24.2662,VALID,352,VALID,0,
2011-02-07, 01:39:04,VALID,1002.16,VALID,0,INVALID,163.693,VALID,0,VALID,24.2662,VALID,352,VALID,0,
2011-02-07, 01:40:04,VALID,1002.12,VALID,0,INVALID,163.678,VALID,0,VALID,24.2662,VALID,352,VALID,0,
2011-02-07, 01:41:04,VALID,1002.15,VALID,0,INVALID,163.685,VALID,0,VALID,24.2468,VALID,352,VALID,0,
2011-02-07, 01:42:04,VALID,1002.14,VALID,0,INVALID,163.685,VALID,0,VALID,24.2449,VALID,352,VALID,0,
2011-02-07, 01:43:04,VALID,1002.15,VALID,0,INVALID,163.685,VALID,0,VALID,24.2662,VALID,352,VALID,0,
2011-02-07, 01:44:04,VALID,1002.16,VALID,0,INVALID,163.678,VALID,0.100563,VALID,24.2857,VALID,352,VALID,0,
2011-02-07, 01:45:04,VALID,1002.15,VALID,0,INVALID,163.701,VALID,0.100563,VALID,24.2857,VALID,352,VALID,0.327344,
2011-02-07, 01:46:04,VALID,1002.15,VALID,0,INVALID,163.678,VALID,0,VALID,24.3052,VALID,352,VALID,0.417578,
2011-02-07, 01:47:04,VALID,1002.17,VALID,0,INVALID,163.708,VALID,0,VALID,24.2839,VALID,352,VALID,0.370313,
2011-02-07, 01:48:04,VALID,1002.16,VALID,0,INVALID,163.716,VALID,0,VALID,24.3459,VALID,352,VALID,0.208203,
2011-02-07, 01:49:04,VALID,1002.16,VALID,0,INVALID,163.693,VALID,0,VALID,24.3246,VALID,352,VALID,0.316797,
2011-02-07, 01:50:04,VALID,1002.14,VALID,0,INVALID,163.693,VALID,0,VALID,24.3033,VALID,352,VALID,0.248437,
2011-02-07, 01:51:04,VALID,1002.16,VALID,0,INVALID,163.708,VALID,0,VALID,24.3228,VALID,352,VALID,0.121875,
2011-02-07, 01:52:04,VALID,1002.12,VALID,0,INVALID,163.678,VALID,0,VALID,24.3636,VALID,352,VALID,0.344531,
2011-02-07, 01:53:04,VALID,1002.14,VALID,0,INVALID,163.662,VALID,0,VALID,24.3636,VALID,352,VALID,0.292578,
2011-02-07, 01:54:04,VALID,1002.14,VALID,0,INVALID,163.693,VALID,0,VALID,24.383,VALID,352,VALID,0.167578,
2011-02-07, 01:55:04,VALID,1002.12,VALID,0,INVALID,163.685,VALID,0,VALID,24.4025,VALID,352,VALID,0.304688,
2011-02-07, 01:56:04,VALID,1002.12,VALID,0,INVALID,163.701,VALID,0,VALID,24.3617,VALID,352,VALID,0.340625,
2011-02-07, 01:57:04,VALID,1002.13,VALID,0,INVALID,163.67,VALID,0,VALID,24.3636,VALID,352,VALID,0.347656,
2011-02-07, 01:58:04,VALID,1002.13,VALID,0,INVALID,163.678,VALID,0,VALID,24.3441,VALID,352,VALID,0.476563,
2011-02-07, 01:59:04,VALID,1002.13,VALID,0,INVALID,163.678,VALID,0,VALID,24.3441,VALID,352,VALID,0.435156,
2011-02-07, 02:00:04,VALID,1002.11,VALID,0,INVALID,163.701,VALID,0.100563,VALID,24.3228,VALID,352,VALID,0.307813,
2011-02-07, 02:01:04,VALID,1002.08,VALID,0,INVALID,163.701,VALID,0.100563,VALID,24.3052,VALID,352,VALID,0.476953,
2011-02-07, 02:02:04,VALID,1002.08,VALID,0,INVALID,163.716,VALID,0,VALID,24.2857,VALID,352,VALID,0.410547,
2011-02-07, 02:03:04,VALID,1002.08,VALID,0,INVALID,163.701,VALID,0,VALID,24.2857,VALID,352,VALID,0.346094,
2011-02-07, 02:04:04,VALID,1002.07,VALID,0,INVALID,163.701,VALID,0,VALID,24.2662,VALID,352,VALID,0.282422,
2011-02-07, 02:05:04,VALID,1002.07,VALID,0,INVALID,163.685,VALID,0,VALID,24.2273,VALID,352,VALID,0.326953,
2011-02-07, 02:06:04,VALID,1002,VALID,0,INVALID,163.662,VALID,0.100563,VALID,24.2273,VALID,352,VALID,0.238281,
2011-02-07, 02:07:04,VALID,1002,VALID,0,INVALID,163.693,VALID,0.100563,VALID,24.1847,VALID,352,VALID,0.263281,
2011-02-07, 02:08:04,VALID,1002,VALID,0,INVALID,163.678,VALID,0.100563,VALID,24.206,VALID,352,VALID,0.334375,
2011-02-07, 02:09:04,VALID,1002.01,VALID,0,INVALID,163.693,VALID,0,VALID,24.1671,VALID,352,VALID,0.345313,
2011-02-07, 02:10:04,VALID,1002,VALID,0,INVALID,163.716,VALID,0,VALID,24.1671,VALID,352,VALID,0.242969,
2011-02-07, 02:11:04,VALID,1002.01,VALID,0,INVALID,163.685,VALID,0,VALID,24.1689,VALID,352,VALID,0.192188,
2011-02-07, 02:12:04,VALID,1002.01,VALID,0,INVALID,163.746,VALID,0,VALID,24.1494,VALID,352,VALID,0.284375,
2011-02-07, 02:13:04,VALID,1002.03,VALID,0,INVALID,163.701,VALID,0,VALID,24.1689,VALID,352,VALID,0.224609,
2011-02-07, 02:14:04,VALID,1002.05,VALID,0,INVALID,163.701,VALID,0,VALID,24.1494,VALID,352,VALID,0.264453,
2011-02-07, 02:15:04,VALID,1002.1,VALID,0,INVALID,163.701,VALID,0,VALID,24.13,VALID,352,VALID,0.0835937,
2011-02-07, 02:16:04,VALID,1002.08,VALID,0,INVALID,163.678,VALID,0,VALID,24.13,VALID,352,VALID,0.21875,
2011-02-07, 02:17:04,VALID,1002.11,VALID,0,INVALID,163.693,VALID,0,VALID,24.13,VALID,352,VALID,0.170703,
2011-02-07, 02:18:04,VALID,1002.14,VALID,0,INVALID,163.731,VALID,0.100563,VALID,24.13,VALID,352,VALID,0.111328,
2011-02-07, 02:19:04,VALID,1002.2,VALID,0,INVALID,163.701,VALID,0,VALID,24.13,VALID,352,VALID,0.186719,
2011-02-07, 02:20:04,VALID,1002.19,VALID,0,INVALID,163.685,VALID,0,VALID,24.13,VALID,352,VALID,0.00507812,
2011-02-07, 02:21:04,VALID,1002.18,VALID,0,INVALID,163.693,VALID,0,VALID,24.1087,VALID,352,VALID,0,
2011-02-07, 02:22:04,VALID,1002.19,VALID,0,INVALID,163.708,VALID,0,VALID,24.1494,VALID,352,VALID,0,
2011-02-07, 02:23:04,VALID,1002.23,VALID,0,INVALID,163.701,VALID,0.100563,VALID,24.1281,VALID,352,VALID,0,
2011-02-07, 02:24:04,VALID,1002.27,VALID,0,INVALID,163.678,VALID,0.100563,VALID,24.1689,VALID,352,VALID,0,
2011-02-07, 02:25:04,VALID,1002.23,VALID,0,INVALID,163.701,VALID,0,VALID,24.1494,VALID,352,VALID,0,
2011-02-07, 02:26:04,VALID,1002.23,VALID,0,INVALID,163.716,VALID,0,VALID,24.1707,VALID,352,VALID,0,
2011-02-07, 02:27:04,VALID,1002.23,VALID,0,INVALID,163.701,VALID,0,VALID,24.1494,VALID,358,VALID,0.710547,
2011-02-07, 02:28:04,VALID,1002.2,VALID,0,INVALID,163.685,VALID,0,VALID,24.1707,VALID,358,VALID,0.700781,
2011-02-07, 02:29:04,VALID,1002.19,VALID,0,INVALID,163.693,VALID,0,VALID,24.1513,VALID,358,VALID,0.494531,
2011-02-07, 02:30:04,VALID,1002.17,VALID,0,INVALID,163.716,VALID,0,VALID,24.1513,VALID,359,VALID,0.598047,
2011-02-07, 02:31:04,VALID,1002.18,VALID,0,INVALID,163.685,VALID,0,VALID,24.1513,VALID,359,VALID,0.595703,
2011-02-07, 02:32:04,VALID,1002.13,VALID,0,INVALID,163.716,VALID,0,VALID,24.1513,VALID,358,VALID,0.745313,
2011-02-07, 02:33:04,VALID,1002.11,VALID,0,INVALID,163.693,VALID,0,VALID,24.13,VALID,358,VALID,0.671875,
2011-02-07, 02:34:04,VALID,1002.08,VALID,0,INVALID,163.716,VALID,0,VALID,24.1513,VALID,358,VALID,0.657422,
2011-02-07, 02:35:04,VALID,1002.08,VALID,0,INVALID,163.701,VALID,0,VALID,24.1123,VALID,358,VALID,0.643359,
2011-02-07, 02:36:04,VALID,1002.05,VALID,0,INVALID,163.708,VALID,0,VALID,24.091,VALID,358,VALID,0.562891,
2011-02-07, 02:37:04,VALID,1002.07,VALID,0,INVALID,163.701,VALID,0,VALID,24.0929,VALID,357,VALID,0.532031,
2011-02-07, 02:38:04,VALID,1002.08,VALID,0,INVALID,163.716,VALID,0,VALID,24.0521,VALID,357,VALID,0.477344,
2011-02-07, 02:39:04,VALID,1002.07,VALID,0,INVALID,163.693,VALID,0,VALID,24.0521,VALID,357,VALID,0.557813,
2011-02-07, 02:40:04,VALID,1002.1,VALID,0,INVALID,163.731,VALID,0,VALID,24.0521,VALID,357,VALID,0.506641,
2011-02-07, 02:41:04,VALID,1002.09,VALID,0,INVALID,163.716,VALID,0,VALID,24.0734,VALID,357,VALID,0.434375,
2011-02-07, 02:42:04,VALID,1002.08,VALID,0,INVALID,163.701,VALID,0,VALID,24.0734,VALID,357,VALID,0.234375,
2011-02-07, 02:43:04,VALID,1002.06,VALID,0,INVALID,163.731,VALID,0,VALID,24.0947,VALID,357,VALID,0.324219,
2011-02-07, 02:44:04,VALID,1002.05,VALID,0,INVALID,163.716,VALID,0,VALID,24.0929,VALID,357,VALID,0.368359,
2011-02-07, 02:45:04,VALID,1002.04,VALID,0,INVALID,163.701,VALID,0,VALID,24.0734,VALID,357,VALID,0.344531,
2011-02-07, 02:46:04,VALID,1002.06,VALID,0,INVALID,163.701,VALID,0,VALID,24.0734,VALID,357,VALID,0.310547,
2011-02-07, 02:47:04,VALID,1002.04,VALID,0,INVALID,163.701,VALID,0,VALID,24.0734,VALID,357,VALID,0.180859,
2011-02-07, 02:48:04,VALID,1002.03,VALID,0,INVALID,163.701,VALID,0,VALID,24.0929,VALID,357,VALID,0.0863281,
2011-02-07, 02:49:04,VALID,1002.02,VALID,0,INVALID,163.708,VALID,0,VALID,24.0929,VALID,357,VALID,0.294141,
2011-02-07, 02:50:04,VALID,1001.99,VALID,0,INVALID,163.716,VALID,0,VALID,24.1318,VALID,357,VALID,0.310547,
2011-02-07, 02:51:04,VALID,1001.97,VALID,0,INVALID,163.701,VALID,0,VALID,24.1105,VALID,357,VALID,0.451953,
2011-02-07, 02:52:04,VALID,1001.96,VALID,0,INVALID,163.701,VALID,0,VALID,24.1513,VALID,357,VALID,0.427734,
2011-02-07, 02:53:04,VALID,1001.95,VALID,0,INVALID,163.693,VALID,0,VALID,24.1513,VALID,357,VALID,0.442187,
2011-02-07, 02:54:04,VALID,1001.91,VALID,0,INVALID,163.716,VALID,0,VALID,24.1707,VALID,357,VALID,0.423828,
2011-02-07, 02:55:04,VALID,1001.93,VALID,0,INVALID,163.678,VALID,0,VALID,24.1513,VALID,357,VALID,0.601953,
2011-02-07, 02:56:04,VALID,1001.91,VALID,0,INVALID,163.693,VALID,0,VALID,24.1494,VALID,357,VALID,0.567969,
2011-02-07, 02:57:04,VALID,1001.94,VALID,0,INVALID,163.701,VALID,0,VALID,24.13,VALID,357,VALID,0.527344,
2011-02-07, 02:58:04,VALID,1001.91,VALID,0,INVALID,163.693,VALID,0,VALID,24.1281,VALID,357,VALID,0.276953,
2011-02-07, 02:59:04,VALID,1001.89,VALID,0,INVALID,163.723,VALID,0.100563,VALID,24.1105,VALID,357,VALID,0.361719,
2011-02-07, 03:00:04,VALID,1001.87,VALID,0,INVALID,163.693,VALID,0.100563,VALID,24.1105,VALID,357,VALID,0.440625,
2011-02-07, 03:01:04,VALID,1001.91,VALID,0,INVALID,163.708,VALID,0,VALID,24.091,VALID,357,VALID,0.475,
2011-02-07, 03:02:04,VALID,1001.85,VALID,0,INVALID,163.693,VALID,0,VALID,24.0716,VALID,357,VALID,0.424609,
2011-02-07, 03:03:04,VALID,1001.84,VALID,0,INVALID,163.685,VALID,0,VALID,24.0697,VALID,357,VALID,0.432031,
2011-02-07, 03:04:04,VALID,1001.83,VALID,0,INVALID,163.701,VALID,0.100563,VALID,24.091,VALID,357,VALID,0.439844,
2011-02-07, 03:05:04,VALID,1001.84,VALID,0,INVALID,163.708,VALID,0.100563,VALID,24.0716,VALID,357,VALID,0.270703,
2011-02-07, 03:06:04,VALID,1001.85,VALID,0,INVALID,163.708,VALID,0.100563,VALID,24.1123,VALID,357,VALID,0.410156,
2011-02-07, 03:07:04,VALID,1001.85,VALID,0,INVALID,163.701,VALID,0.100563,VALID,24.091,VALID,357,VALID,0.330469,
2011-02-07, 03:08:04,VALID,1001.84,VALID,0,INVALID,163.701,VALID,0,VALID,24.0716,VALID,357,VALID,0.408594,
2011-02-07, 03:09:04,VALID,1001.85,VALID,0,INVALID,163.723,VALID,0,VALID,24.0716,VALID,357,VALID,0.351172,
2011-02-07, 03:10:04,VALID,1001.85,VALID,0,INVALID,163.716,VALID,0.100563,VALID,24.0697,VALID,357,VALID,0.285937,
2011-02-07, 03:11:04,VALID,1001.84,VALID,0,INVALID,163.701,VALID,0.100563,VALID,24.0697,VALID,357,VALID,0,
2011-02-07, 03:12:04,VALID,1001.85,VALID,0,INVALID,163.716,VALID,0,VALID,24.091,VALID,357,VALID,0.246484,
2011-02-07, 03:13:04,VALID,1001.89,VALID,0,INVALID,163.701,VALID,0,VALID,24.0716,VALID,357,VALID,0.438672,
2011-02-07, 03:14:04,VALID,1001.9,VALID,0,INVALID,163.708,VALID,0.100563,VALID,24.0503,VALID,357,VALID,0.367578,
2011-02-07, 03:15:04,VALID,1001.92,VALID,0,INVALID,163.701,VALID,0,VALID,24.0503,VALID,357,VALID,0.412891,
2011-02-07, 03:16:04,VALID,1001.92,VALID,0,INVALID,163.701,VALID,0,VALID,24.0716,VALID,357,VALID,0.380859,
2011-02-07, 03:17:04,VALID,1001.98,VALID,0,INVALID,163.708,VALID,0.100563,VALID,24.0521,VALID,357,VALID,0.390234,
2011-02-07, 03:18:04,VALID,1001.98,VALID,0,INVALID,163.723,VALID,0.100563,VALID,24.0521,VALID,357,VALID,0.316016,
2011-02-07, 03:19:04,VALID,1001.99,VALID,0,INVALID,163.685,VALID,0,VALID,24.0308,VALID,357,VALID,0.445313,
2011-02-07, 03:20:04,VALID,1002.01,VALID,0,INVALID,163.708,VALID,0.100563,VALID,24.0716,VALID,357,VALID,0.298047,
2011-02-07, 03:21:04,VALID,1002.02,VALID,0,INVALID,163.701,VALID,0,VALID,24.091,VALID,357,VALID,0.301562,
2011-02-07, 03:22:04,VALID,1002.04,VALID,0,INVALID,163.723,VALID,0.100563,VALID,24.1105,VALID,357,VALID,0.310937,
2011-02-07, 03:23:04,VALID,1002.04,VALID,0,INVALID,163.678,VALID,0,VALID,24.1105,VALID,357,VALID,0.320703,
2011-02-07, 03:24:04,VALID,1002.04,VALID,0,INVALID,163.693,VALID,0.100563,VALID,24.13,VALID,357,VALID,0.209766,
2011-02-07, 03:25:04,VALID,1002.04,VALID,0,INVALID,163.701,VALID,0.100563,VALID,24.1513,VALID,357,VALID,0.0265625,
2011-02-07, 03:26:04,VALID,1002.07,VALID,0,INVALID,163.701,VALID,0.100563,VALID,24.13,VALID,357,VALID,0,
2011-02-07, 03:27:04,VALID,1002.05,VALID,0,INVALID,163.693,VALID,0.100563,VALID,24.0892,VALID,357,VALID,0.217969,
2011-02-07, 03:28:04,VALID,1002.04,VALID,0,INVALID,163.723,VALID,0,VALID,24.13,VALID,357,VALID,0.350391,
2011-02-07, 03:29:04,VALID,1002.06,VALID,0,INVALID,163.701,VALID,0,VALID,24.13,VALID,357,VALID,0.455469,
2011-02-07, 03:30:04,VALID,1002.02,VALID,0,INVALID,163.693,VALID,0.100563,VALID,24.1087,VALID,357,VALID,0.369531,
2011-02-07, 03:31:04,VALID,1002.02,VALID,0,INVALID,163.716,VALID,0.100563,VALID,24.1281,VALID,357,VALID,0.426172,
2011-02-07, 03:32:04,VALID,1002.03,VALID,0,INVALID,163.701,VALID,0.100563,VALID,24.1476,VALID,357,VALID,0.463281,
2011-02-07, 03:33:04,VALID,1002.04,VALID,0,INVALID,163.685,VALID,0,VALID,24.1494,VALID,357,VALID,0.339453,
2011-02-07, 03:34:04,VALID,1002.05,VALID,0,INVALID,163.693,VALID,0.100563,VALID,24.1494,VALID,357,VALID,0.419141,
2011-02-07, 03:35:04,VALID,1002.03,VALID,0,INVALID,163.693,VALID,0.100563,VALID,24.13,VALID,357,VALID,0.385547,
2011-02-07, 03:36:04,VALID,1002.08,VALID,0,INVALID,163.716,VALID,0,VALID,24.1087,VALID,357,VALID,0.243359,
2011-02-07, 03:37:04,VALID,1002.05,VALID,0,INVALID,163.708,VALID,0.100563,VALID,24.1087,VALID,357,VALID,0.446484,
2011-02-07, 03:38:04,VALID,1002.06,VALID,0,INVALID,163.708,VALID,0.100563,VALID,24.1105,VALID,357,VALID,0.419531,
2011-02-07, 03:39:04,VALID,1002.07,VALID,0,INVALID,163.708,VALID,0,VALID,24.13,VALID,357,VALID,0.371484,